Regional Weather Roundup
Issued by NWS Albany, NY

Home | Current Version | Previous Version | Graphics & Text | Print | Product List | Glossary On
Versions: 1 2 3 4 5 6 7 8 9 10 11 12 13 14 15 16 17 18 19 20 21 22 23 24 25 26 27 28 29 30 31 32 33 34 35 36 37 38 39 40 41 42 43 44 45 46 47 48 49 50
000
ASUS41 KALY 310010
RWRALY

NEW YORK STATE HOURLY WEATHER ROUNDUP
NATIONAL WEATHER SERVICE ALBANY NY
700 PM EST FRI JAN 30 2015

NOTE: "FAIR" INDICATES FEW OR NO CLOUDS BELOW 12,000 FEET WITH NO
SIGNIFICANT WEATHER AND/OR NO OBSTRUCTIONS TO VISIBILITY.

NYZ032-033-038>043-046>054-057>066-NYZ062>081-310100-
EAST


CITY           SKY/WX    TMP DP  RH WIND       PRES   REMARKS
ALBANY         PTCLDY    17   5  59 W22G31    30.01R WCI   0
GLENS FALLS    CLOUDY    16   4  59 NW13      30.01R WCI   2
POUGHKEEPSIE   CLEAR     26   8  46 NW14G25   29.96R WCI  14
NEWBURGH       PTCLDY    23  12  63 NW23G35   29.95R WCI   7
MONTGOMERY     MOCLDY    22   8  55 NW17G29   29.97R WCI   8
WHITE PLAINS   CLEAR     26  13  57 NW25G32   29.90R WCI  11
ISLIP          MOCLDY    31  16  54 NW16G31   29.85R WCI  20
NEW YORK CITY  PTCLDY    28  13  53 NW30G40   29.94R WCI  12
CENTRAL PARK   CLEAR     28   9  44 NW15G35   29.97R WCI  16
$$

NYZ005>009-017-018-044>046-055-056-310100-
CENTRAL


CITY           SKY/WX    TMP DP  RH WIND       PRES   REMARKS
FULTON         CLOUDY    17   4  56 NW14G24   30.19R WCI   3
SYRACUSE       FLURRIES  15   8  73 NW16G24   30.18R WCI  -1
ROME           PTCLDY     9   1  70 NW12      30.16R WCI  -6
ELMIRA         FLURRIES  14   4  64 W8        30.19R WCI   3
BINGHAMTON     LGT SNOW  10   6  84 NW13      30.06R FOG     WCI  -5
MONTICELLO     CLOUDY    16   7  67 NW16G29   29.96R WCI   0
$$

NYZ026>034-041>043-310100-
NORTH


CITY           SKY/WX    TMP DP  RH WIND       PRES   REMARKS
WATERTOWN      CLEAR      4  -4  69 NE3       30.23R
FORT DRUM      NOT AVBL
MASSENA        CLEAR      7  -5  57 NW14G25   30.19R WCI -10
SARANAC LAKE   CLOUDY     4  -2  76 NW9       29.97R WCI -10
PLATTSBURGH    CLOUDY    12   0  58 NW14G23   30.07R WCI  -3
$$

NYZ001>004-010>016-019>021-310100-
WEST


CITY           SKY/WX    TMP DP  RH WIND       PRES   REMARKS
NIAGARA FALLS  MOCLDY    12   2  64 NW12      30.32S WCI  -2
BUFFALO        FLURRIES  13   3  64 NW9       30.31R WCI   1
DUNKIRK        CLEAR     11   2  67 W14G21    30.36R WCI  -5
JAMESTOWN      FAIR       7   1  78 NW9       30.23R WCI  -7
WELLSVILLE     MOCLDY     7  -1  70 NW20G26   30.14R WCI -13
ROCHESTER      LGT SNOW  13   6  74 NW12      30.27R WCI  -1
PENN YAN       LGT SNOW  11   3  70 NW14G31   30.18S WCI  -5
$$

             KEY
       WCI = WIND CHILL INDEX
       VSB = VISIBILITY
       HX  = HEAT INDEX
$$



USA.gov is the U.S. government's official web portal to all federal, state and local government web resources and services.